EW5800 Weather Reports


Display with metric or nautical units.
time (UTC)temp
F
wind
direction
speed
MPH
gust
MPH
rain 1hr
in
rain 24hr
in
rain mn
in
humidity
%
barometer
mb
20260906191507 74 66 0.0 1.0 0.00 0.00 0.00 53 1014.6
20260906190004 72 72 0.0 4.0 0.00 0.00 0.00 57 1014.7
20260906184503 72 341 0.0 3.0 0.00 0.00 0.00 55 1014.9
20260906183105 71 193 0.0 2.0 0.00 0.00 0.00 58 1015.1
20260906181557 70 326 0.0 2.0 0.00 0.00 0.00 60 1015.1
20260906180053 68 188 0.0 3.0 0.00 0.00 0.00 63 1015.3
20260906174551 67 98 0.0 2.0 0.00 0.00 0.00 65 1015.4
20260906173048 66 49 0.0 3.0 0.00 0.00 0.00 69 1015.5
20260906171543 63 75 0.0 2.0 0.00 0.00 0.00 76 1015.7
20260906170038 61 137 0.0 4.0 0.00 0.00 0.00 79 1015.8
20260906164537 60 231 0.0 2.0 0.00 0.00 0.00 81 1016.0
20260906163032 59 217 0.0 2.0 0.00 0.00 0.00 83 1016.0
20260906161528 58 210 0.0 1.0 0.00 0.00 0.00 86 1016.0
20260906160028 57 162 0.0 1.0 0.00 0.00 0.00 88 1016.0
20260906154527 56 218 0.0 1.0 0.00 0.00 0.00 89 1016.1
20260906153029 54 69 0.0 0.0 0.00 0.00 0.00 91 1016.2
20260906151526 53 69 0.0 0.0 0.00 0.00 0.00 91 1016.3
20260906150036 52 66 0.0 1.0 0.00 0.00 0.00 92 1016.1
20260906144530 51 67 0.0 0.0 0.00 0.00 0.00 92 1016.1
20260906143024 50 68 0.0 0.0 0.00 0.00 0.00 92 1016.1
20260906141523 50 68 0.0 0.0 0.00 0.00 0.00 92 1016.0
20260906140022 50 68 0.0 0.0 0.00 0.00 0.00 92 1015.9
20260906134537 50 68 0.0 0.0 0.00 0.00 0.00 92 1015.9
20260906133028 50 68 0.0 0.0 0.00 0.00 0.00 92 1015.9
20260906131520 50 68 0.0 0.0 0.00 0.00 0.00 92 1015.8
20260906130018 50 68 0.0 0.0 0.00 0.00 0.00 92 1016.0
20260906124517 50 68 0.0 0.0 0.00 0.00 0.00 92 1016.0
20260906123027 51 68 0.0 0.0 0.00 0.00 0.00 92 1016.0
20260906121515 51 68 0.0 0.0 0.00 0.00 0.00 92 1016.0
20260906120014 51 68 0.0 0.0 0.00 0.00 0.00 92 1016.0
20260906114513 51 68 0.0 0.0 0.00 0.00 0.00 92 1016.0
20260906113012 52 68 0.0 0.0 0.00 0.00 0.00 92 1015.8
20260906111509 52 68 0.0 0.0 0.00 0.00 0.00 91 1015.8
20260906110008 52 68 0.0 0.0 0.00 0.00 0.00 91 1015.9
20260906104507 53 68 0.0 0.0 0.00 0.00 0.00 91 1015.9
20260906103005 53 68 0.0 0.0 0.00 0.00 0.00 91 1015.8
20260906101503 53 68 0.0 0.0 0.00 0.00 0.00 91 1015.9
20260906100001 54 68 0.0 0.0 0.00 0.00 0.00 91 1016.0
20260906094600 54 68 0.0 0.0 0.00 0.00 0.00 90 1016.0
20260906093113 54 68 0.0 0.0 0.00 0.00 0.00 90 1016.0
20260906091556 55 68 0.0 0.0 0.00 0.00 0.00 90 1016.2
20260906090054 55 68 0.0 0.0 0.00 0.00 0.00 90 1016.2
20260906084553 55 67 0.0 0.0 0.00 0.00 0.00 90 1016.2
20260906083051 55 68 0.0 0.0 0.00 0.00 0.00 90 1016.4
20260906081549 56 68 0.0 0.0 0.00 0.00 0.00 89 1016.4
20260906080050 56 68 0.0 0.0 0.00 0.00 0.00 89 1016.4
20260906074546 56 68 0.0 0.0 0.00 0.00 0.00 88 1016.2
20260906073043 57 68 0.0 0.0 0.00 0.00 0.00 88 1016.3
20260906071542 57 68 0.0 0.0 0.00 0.00 0.00 88 1016.4
20260906070039 58 68 0.0 2.0 0.00 0.00 0.00 86 1016.4
20260906064538 58 279 0.0 0.0 0.00 0.00 0.00 84 1016.4
20260906063038 58 293 0.0 3.0 0.00 0.00 0.00 85 1016.4
20260906061538 58 236 0.0 1.0 0.00 0.00 0.00 87 1016.4
20260906060037 58 203 0.0 0.0 0.00 0.00 0.00 87 1016.2
20260906054536 58 199 0.0 0.0 0.00 0.00 0.00 87 1016.2
20260906053042 59 199 0.0 0.0 0.00 0.00 0.00 86 1016.3
20260906051536 59 199 0.0 0.0 0.00 0.00 0.00 85 1016.3
20260906050035 59 290 0.0 0.0 0.00 0.00 0.00 85 1016.4
20260906044534 60 291 0.0 0.0 0.00 0.00 0.00 84 1016.5
20260906043034 60 295 0.0 0.0 0.00 0.00 0.00 84 1016.4
20260906041535 60 336 0.0 0.0 0.00 0.00 0.00 85 1016.5
20260906040039 60 336 0.0 0.0 0.00 0.00 0.00 84 1016.4
20260906034541 61 336 0.0 0.0 0.00 0.00 0.00 82 1016.4
20260906033032 62 336 0.0 0.0 0.00 0.00 0.00 79 1016.2
20260906031534 62 336 0.0 0.0 0.00 0.00 0.00 78 1016.1
20260906030033 63 336 0.0 0.0 0.00 0.00 0.00 76 1016.1
20260906024531 64 336 0.0 0.0 0.00 0.00 0.00 73 1016.1
20260906023031 65 336 0.0 1.0 0.00 0.00 0.00 69 1016.1
20260906021531 66 316 0.0 0.0 0.00 0.00 0.00 68 1016.1
20260906020032 66 316 0.0 2.0 0.00 0.00 0.00 65 1016.1
20260906014542 67 354 0.0 3.0 0.00 0.00 0.00 62 1015.8
20260906013034 68 75 0.0 3.0 0.00 0.00 0.00 60 1015.6
20260906011528 68 52 0.0 3.0 0.00 0.00 0.00 58 1015.4
20260906010027 69 309 1.0 4.0 0.00 0.00 0.00 55 1015.3
20260906004527 69 24 0.0 4.0 0.00 0.00 0.00 54 1015.3
20260906003026 70 304 0.0 4.0 0.00 0.00 0.00 53 1015.3
20260906001526 71 257 0.0 3.0 0.00 0.00 0.00 52 1015.3
20260906000024 72 288 0.0 2.0 0.00 0.00 0.00 51 1015.2
20260905234522 73 302 0.0 4.0 0.00 0.00 0.00 50 1015.2
20260905233033 74 92 0.0 3.0 0.00 0.00 0.00 48 1015.3
20260905231523 74 309 0.0 4.0 0.00 0.00 0.00 49 1015.4
20260905230019 75 75 0.0 5.0 0.00 0.00 0.00 49 1015.4
20260905224518 74 43 2.0 6.0 0.00 0.00 0.00 50 1015.5
20260905223017 75 314 0.0 7.0 0.00 0.00 0.00 48 1015.5
20260905221527 77 207 0.0 2.0 0.00 0.00 0.00 46 1015.4
20260905220011 76 289 0.0 5.0 0.00 0.00 0.00 48 1015.5
20260905214509 74 123 0.0 2.0 0.00 0.00 0.00 50 1015.6
20260905213007 73 300 1.0 5.0 0.00 0.00 0.00 53 1015.7
20260905211517 73 75 1.0 5.0 0.00 0.00 0.00 54 1015.9
20260905210008 72 275 1.0 9.0 0.00 0.00 0.00 57 1016.0
20260905204503 73 86 0.0 6.0 0.00 0.00 0.00 58 1016.1
20260905203003 73 60 2.0 8.0 0.00 0.00 0.00 58 1016.2
20260905201502 72 66 0.0 6.0 0.00 0.00 0.00 62 1016.1
20260905200107 73 49 1.0 6.0 0.00 0.00 0.00 58 1016.1
20260905194600 73 39 0.0 5.0 0.00 0.00 0.00 57 1016.2
20260905193110 74 311 0.0 4.0 0.00 0.00 0.00 56 1016.3